Hourly Data Report for October 11, 2018

MONTREAL INTL A
QUEBEC
Current Station Operator: NAVCAN

45°28'14.000" N
73°44'27.000" W
36.00 m
7025251
71627
YUL

Download Data

Hourly Data (October 2018)
Hourly Data Report for October 11, 2018
TIME
LST
Temp Definition
°C
Dew Point Definition
°C
Rel Hum Definition
%
Precip. Amount Definition
mm

Wind Dir Definition
10's deg

Wind Spd Definition
km/h
Visibility Definition
km
Stn Press Definition
kPa
Hmdx Definition


Wind Chill Definition


Weather Definition


00:00 8.8 8.1 95   4 25 16.1 100.68     Rain
01:00 8.6 7.7 94   4 22 24.1 100.64     Cloudy
02:00 8.3 7.4 94   5 26 24.1 100.47     LegendNANA
03:00 8.2 7.3 95   5 23 16.1 100.38     Rain
04:00 8.0 7.4 96   4 27 8.1 100.29     Rain, Fog
05:00 8.0 7.5 97   4 21 6.4 100.20     Rain, Fog
06:00 8.1 7.5 96   3 21 6.4 100.12     Rain, Fog
07:00 8.1 7.5 96   3 22 4.8 100.04     Drizzle, Fog
08:00 7.9 7.3 96   35 16 4.8 100.03     Drizzle, Fog
09:00 7.8 7.3 97   2 17 6.4 99.95     Drizzle, Fog
10:00 7.8 7.4 97   2 14 6.4 99.91     Rain, Fog
11:00 7.8 7.2 96   1 21 12.9 99.85     Rain
12:00 8.2 7.5 95   1 21 12.9 99.79     Drizzle
13:00 8.4 7.8 96   3 18 9.7 99.71     Drizzle
14:00 8.7 8.2 97   4 18 4.8 99.65     Rain, Fog
15:00 9.2 8.6 96   3 17 12.9 99.62     Drizzle
16:00 9.1 8.6 96   3 23 11.3 99.59     Drizzle
17:00 9.1 8.6 97   4 15 4.8 99.59     Drizzle, Fog
18:00 9.0 8.6 97   2 14 3.2 99.59     Drizzle, Fog
19:00 8.9 8.6 98   2 14 1.6 99.59     Drizzle, Fog
20:00 8.6 8.2 98   1 9 2.0 99.64     Drizzle, Fog
21:00 8.6 8.2 98   34 11 4.8 99.68     Fog
22:00 8.8 8.4 97   26 5 2.4 99.73     Fog
23:00 9.3 9.0 98   24 13 2.4 99.76     Fog

Notes on Data Quality.

Legend

  • E = Estimated
  • M = Missing
  • NA = Not Available*
  • [empty] = Indicates an unobserved value
Date modified: